Weather Roundup
Issued by NWS Corpus Christi, TX

Home | Current Version | Previous Version | Text Only | Print | Product List | Glossary On
Versions: 1 2 3 4 5 6 7 8 9 10 11 12 13 14 15 16 17 18 19 20 21 22 23 24 25 26 27 28 29 30 31 32 33 34 35 36 37 38 39 40 41 42 43 44 45 46 47 48 49 50
000
ASUS44 KCRP 260010
HRRCRP

SOUTH TEXAS REGIONAL WEATHER ROUNDUP
NATIONAL WEATHER SERVICE CORPUS CHRISTI TX
700 PM CDT WED MAY 25 2016


TXZ229>244-260100-
...CORPUS CHRISTI AREA OBSERVATIONS...

CITY           SKY/WX    TMP DP  RH WIND       PRES   REMARKS
CORPUS CHRISTI CLOUDY    84  77  79 SE16      29.94R HX  94
NAS CORPUS CHR CLOUDY    83  79  88 SE21      29.94R HX  94
ROCKPORT       MOSUNNY   83  76  79 SE16      29.94S HX  91
KINGSVILLE NAS CLOUDY    84  80  88 SE16      29.93R HX  97
ALICE          CLOUDY    84  76  76 SE16G30   29.92R HX  93
FALFURRIAS     CLOUDY    88  76  66 SE12      29.91R HX  98
$$

...VICTORIA AREA OBSERVATIONS...

CITY           SKY/WX    TMP DP  RH WIND       PRES   REMARKS
VICTORIA       MOSUNNY   84  74  71 SE20      29.94F HX  91
BEEVILLE       FAIR      85  78  79 SE14G23   29.93F HX  95
PLEASANTON     MOSUNNY   87  74  65 E12G18    29.92R HX  95
SAN ANTONIO    CLOUDY    86  74  67 SE15      29.93F HX  94
$$

...LAREDO AREA OBSERVATIONS...

CITY           SKY/WX    TMP DP  RH WIND       PRES   REMARKS
LAREDO         LGT RAIN  88  77  69 SE12      29.91R HX 100
COTULLA        CLOUDY    91  73  55 S8        29.89S HX  99
DEL RIO        CLOUDY    85  76  74 SE10      29.90S HAZE    HX  94
MCALLEN        CLOUDY    89  73  59 SE14G21   29.91R HX  97
HEBBRONVILLE   CLOUDY    88  73  61 S8        29.93R HX  96
$$

...OTHER TEXAS OBSERVATIONS...

CITY           SKY/WX    TMP DP  RH WIND       PRES   REMARKS
BROWNSVILLE    CLOUDY    84  77  79 SE15      29.92R HX  94
HOUSTON        CLOUDY    84  73  69 SE18      29.97F HX  90
COL. STATION   CLOUDY    84  74  71 SE15      29.93R HX  91
AUSTIN         CLOUDY    84  75  74 S13       29.93R HX  92
WACO           CLOUDY    84  74  71 S10       29.92F HX  91
FORT WORTH     CLOUDY    85  74  69 S12       29.90S HX  92
WICHITA FALLS  SUNNY     87  75  67 S15       29.83S HX  96
LUBBOCK        SUNNY     91  23   8 SW17G33   29.91F
EL PASO        MOSUNNY   92  19   7 W17G30    29.92F
$$

...MARINE OBSERVATIONS...

STATION/POSITION TIME  SKY/WX   TEMP    WIND        PRES    VSBY  WAVE   SWELL
                                AIR SEA DIR/SP/G                  HT/PER HT/PER
                 (UTC)          (F)     (DEG/KT/KT) (MB)    (MI)  (FT/S) (FT/S)
PORT ARANSAS     0000            81 84  110/ 17/ 18 1014.7R
BUOY 90 E PORT A 2350            82 81  130/ 12/ 14 1015.4S         5/ 7   3/ 7
BUOY 45 SE BAFFI 2350            82 83  130/ 14/ 16 1013.2R         5/ 7   3/ 7
BUOY 200 E PT IS 2350                                 N/A           4/ 7   2/13
BUOY 15 E GALVES 2350            81 81  130/ 12/ 14 1016.5F         4/ 7   3/ 7
$$




USA.gov is the U.S. government's official web portal to all federal, state and local government web resources and services.